EW9366 Weather Reports


Display with metric or nautical units.
time (UTC)temp
F
wind
direction
speed
MPH
gust
MPH
rain 1hr
in
rain 24hr
in
rain mn
in
humidity
%
barometer
mb
20260906035916 82 352 0.0 0.0 0.00 0.00 0.00 66 1013.5
20260906035411 82 352 0.0 0.0 0.00 0.00 0.00 66 1013.5
20260906034908 82 352 0.0 0.0 0.00 0.00 0.00 65 1013.5
20260906034344 83 352 0.0 0.0 0.00 0.00 0.00 65 1013.5
20260906034315 83 352 0.0 0.0 0.00 0.00 0.00 65 1013.5
20260906033332 83 352 0.0 0.0 0.00 0.00 0.00 64 1013.4
20260906032826 83 352 0.0 0.0 0.00 0.00 0.00 64 1013.6
20260906032327 83 352 0.0 0.0 0.00 0.00 0.00 64 1013.6
20260906031805 83 352 0.0 0.0 0.00 0.00 0.00 64 1013.6
20260906031723 83 352 0.0 0.0 0.00 0.00 0.00 63 1013.5
20260906030720 84 352 0.0 0.0 0.00 0.00 0.00 63 1013.5
20260906030208 84 352 0.0 0.0 0.00 0.00 0.00 63 1013.5
20260906025638 84 352 0.0 0.0 0.00 0.00 0.00 63 1013.5
20260906025138 84 352 0.0 0.0 0.00 0.00 0.00 62 1013.4
20260906025050 84 352 0.0 0.0 0.00 0.00 0.00 62 1013.4
20260906024106 84 352 0.0 0.0 0.00 0.00 0.00 62 1013.4
20260906023603 84 352 0.0 0.0 0.00 0.00 0.00 61 1013.3
20260906023100 84 352 0.0 0.0 0.00 0.00 0.00 61 1013.1
20260906022530 84 352 0.0 0.0 0.00 0.00 0.00 60 1013.2
20260906022513 84 352 0.0 0.0 0.00 0.00 0.00 60 1013.0
20260906021459 85 352 0.0 0.0 0.00 0.00 0.00 59 1012.9
20260906021002 85 352 0.0 0.0 0.00 0.00 0.00 59 1012.8
20260906020437 85 352 0.0 0.0 0.00 0.00 0.00 58 1012.6
20260906015910 86 352 0.0 0.0 0.00 0.00 0.00 58 1012.6
20260906015905 86 352 0.0 0.0 0.00 0.00 0.00 57 1012.5
20260906014841 86 352 0.0 0.0 0.00 0.00 0.00 57 1012.5
20260906014311 87 352 0.0 1.0 0.00 0.00 0.00 56 1012.4
20260906013741 87 352 0.0 1.0 0.00 0.00 0.00 57 1012.3
20260906013722 87 352 0.0 0.0 0.00 0.00 0.00 55 1012.2
20260906012712 87 352 0.0 0.0 0.00 0.00 0.00 54 1012.1
20260906012151 88 352 0.0 0.0 0.00 0.00 0.00 53 1012.1
20260906011650 89 352 0.0 0.0 0.00 0.00 0.00 52 1012.0
20260906011145 89 352 0.0 0.0 0.00 0.00 0.00 51 1012.0
20260906010639 90 352 0.0 0.0 0.00 0.00 0.00 50 1012.0
20260906010135 90 352 0.0 0.0 0.00 0.00 0.00 48 1011.9
20260906005635 91 352 0.0 0.0 0.00 0.00 0.00 48 1011.8
20260906005106 92 352 0.0 0.0 0.00 0.00 0.00 46 1011.8
20260906004604 93 352 0.0 1.0 0.00 0.00 0.00 46 1011.8
20260906004035 93 352 0.0 1.0 0.00 0.00 0.00 46 1011.8
20260906004019 94 352 0.0 1.0 0.00 0.00 0.00 44 1011.8
20260906003010 95 352 0.0 1.0 0.00 0.00 0.00 43 1011.8
20260906002509 96 333 0.0 1.0 0.00 0.00 0.00 42 1011.9
20260906002008 97 333 0.0 1.0 0.00 0.00 0.00 42 1011.6
20260906001459 97 68 0.0 3.0 0.00 0.00 0.00 41 1011.8
20260906000957 98 68 1.0 3.0 0.00 0.00 0.00 41 1011.8
20260906000430 98 122 0.0 2.0 0.00 0.00 0.00 41 1011.8
20260905235928 98 77 1.0 3.0 0.00 0.00 0.00 40 1011.8
20260905235401 98 57 2.0 3.0 0.00 0.00 0.00 40 1011.9
20260905234833 98 106 2.0 4.0 0.00 0.00 0.00 40 1011.8
20260905234328 98 92 2.0 5.0 0.00 0.00 0.00 40 1011.8
20260905233809 98 80 3.0 5.0 0.00 0.00 0.00 40 1011.8
20260905233244 99 39 2.0 5.0 0.00 0.00 0.00 40 1011.8
20260905232736 99 56 1.0 4.0 0.00 0.00 0.00 39 1011.8
20260905232231 100 45 1.0 5.0 0.00 0.00 0.00 39 1011.9
20260905232210 100 121 1.0 5.0 0.00 0.00 0.00 39 1011.9
20260905231225 100 19 1.0 2.0 0.00 0.00 0.00 39 1011.9
20260905230657 100 103 1.0 3.0 0.00 0.00 0.00 39 1011.8
20260905230157 100 11 2.0 5.0 0.00 0.00 0.00 40 1011.8
20260905225644 99 18 2.0 5.0 0.00 0.00 0.00 40 1011.6
20260905225118 100 30 1.0 5.0 0.00 0.00 0.00 39 1011.8
20260905224603 100 49 1.0 4.0 0.00 0.00 0.00 39 1011.6
20260905224100 99 98 1.0 6.0 0.00 0.00 0.00 39 1011.5
20260905223558 99 73 2.0 6.0 0.00 0.00 0.00 39 1011.6
20260905223030 99 131 2.0 5.0 0.00 0.00 0.00 38 1011.6
20260905222528 99 70 1.0 4.0 0.00 0.00 0.00 39 1011.6
20260905222002 99 95 2.0 6.0 0.00 0.00 0.00 39 1011.6
20260905221954 99 115 3.0 7.0 0.00 0.00 0.00 39 1011.8
20260905221421 99 44 3.0 9.0 0.00 0.00 0.00 40 1011.8
20260905220436 100 82 2.0 9.0 0.00 0.00 0.00 38 1011.8
20260905215927 100 99 1.0 5.0 0.00 0.00 0.00 38 1011.8
20260905215911 100 119 0.0 2.0 0.00 0.00 0.00 38 1011.9
20260905214857 100 106 0.0 3.0 0.00 0.00 0.00 38 1011.9
20260905214814 101 244 1.0 3.0 0.00 0.00 0.00 39 1012.0
20260905213827 100 144 1.0 5.0 0.00 0.00 0.00 38 1012.1
20260905213259 100 143 1.0 5.0 0.00 0.00 0.00 37 1012.1
20260905212755 100 58 2.0 6.0 0.00 0.00 0.00 37 1012.1
20260905212253 100 82 2.0 6.0 0.00 0.00 0.00 37 1012.2
20260905211752 101 85 2.0 5.0 0.00 0.00 0.00 38 1012.2
20260905211230 101 82 2.0 5.0 0.00 0.00 0.00 36 1012.2
20260905210731 101 58 2.0 5.0 0.00 0.00 0.00 37 1012.3
20260905210204 101 91 1.0 3.0 0.00 0.00 0.00 37 1012.4
20260905205641 101 72 1.0 4.0 0.00 0.00 0.00 37 1012.5
20260905205601 101 239 2.0 6.0 0.00 0.00 0.00 37 1012.5
20260905205045 101 213 1.0 7.0 0.00 0.00 0.00 37 1012.6
20260905204107 102 136 1.0 5.0 0.00 0.00 0.00 37 1012.6
20260905203551 101 131 2.0 5.0 0.00 0.00 0.00 40 1012.8
20260905203051 101 18 2.0 5.0 0.00 0.00 0.00 38 1012.8
20260905202549 101 11 2.0 7.0 0.00 0.00 0.00 38 1012.9
20260905202051 101 53 2.0 7.0 0.00 0.00 0.00 38 1013.0
20260905201539 102 79 1.0 5.0 0.00 0.00 0.00 38 1013.0
20260905201037 102 193 1.0 5.0 0.00 0.00 0.00 40 1013.1
20260905200514 102 260 1.0 5.0 0.00 0.00 0.00 38 1013.4
20260905200451 102 85 1.0 4.0 0.00 0.00 0.00 37 1013.5
20260905195437 103 259 1.0 4.0 0.00 0.00 0.00 37 1013.6
20260905194909 102 94 1.0 5.0 0.00 0.00 0.00 37 1013.6
20260905194406 102 122 2.0 5.0 0.00 0.00 0.00 41 1013.7
20260905193841 102 130 1.0 4.0 0.00 0.00 0.00 39 1013.8
20260905193321 101 132 1.0 4.0 0.00 0.00 0.00 41 1013.8
20260905192817 101 167 1.0 5.0 0.00 0.00 0.00 41 1013.8
20260905192315 100 89 1.0 5.0 0.00 0.00 0.00 40 1014.0
20260905191818 100 356 2.0 7.0 0.00 0.00 0.00 44 1014.1
20260905191249 100 22 1.0 7.0 0.00 0.00 0.00 42 1014.2
20260905190724 98 269 2.0 5.0 0.00 0.00 0.00 45 1014.3
20260905190155 98 32 3.0 5.0 0.00 0.00 0.00 46 1014.5
20260905190132 97 65 2.0 6.0 0.00 0.00 0.00 46 1014.6
20260905185636 96 113 2.0 5.0 0.00 0.00 0.00 48 1014.7
20260905184633 96 108 2.0 5.0 0.00 0.00 0.00 45 1014.7
20260905184055 97 33 2.0 5.0 0.00 0.00 0.00 44 1014.6
20260905183553 98 52 3.0 8.0 0.00 0.00 0.00 43 1014.7
20260905183053 100 75 2.0 8.0 0.00 0.00 0.00 43 1014.8
20260905182549 100 356 1.0 5.0 0.00 0.00 0.00 42 1014.9
20260905182043 100 145 2.0 6.0 0.00 0.00 0.00 43 1014.9
20260905181542 100 144 3.0 6.0 0.00 0.00 0.00 44 1014.9
20260905181021 101 21 1.0 7.0 0.00 0.00 0.00 43 1014.9
20260905180521 101 47 1.0 7.0 0.00 0.00 0.00 44 1015.0
20260905180019 100 193 2.0 7.0 0.00 0.00 0.00 43 1015.1
20260905180008 100 36 3.0 7.0 0.00 0.00 0.00 45 1015.0
20260905175017 101 65 2.0 6.0 0.00 0.00 0.00 43 1015.2
20260905174519 101 278 2.0 4.0 0.00 0.00 0.00 42 1015.2
20260905173951 101 53 1.0 4.0 0.00 0.00 0.00 43 1015.3
20260905173452 101 89 1.0 3.0 0.00 0.00 0.00 45 1015.4
20260905172930 100 265 1.0 3.0 0.00 0.00 0.00 47 1015.5
20260905172433 99 301 2.0 5.0 0.00 0.00 0.00 45 1015.6
20260905172341 98 250 2.0 5.0 0.00 0.00 0.00 45 1015.7
20260905171402 98 96 2.0 4.0 0.00 0.00 0.00 47 1015.7
20260905170854 99 23 1.0 4.0 0.00 0.00 0.00 46 1015.6
20260905170354 99 264 1.0 5.0 0.00 0.00 0.00 46 1015.7
20260905165825 98 92 1.0 5.0 0.00 0.00 0.00 47 1015.7
20260905165328 98 144 1.0 5.0 0.00 0.00 0.00 50 1015.9
20260905164800 98 193 1.0 5.0 0.00 0.00 0.00 48 1015.8
20260905164744 98 248 1.0 5.0 0.00 0.00 0.00 47 1016.0
20260905164235 98 122 2.0 5.0 0.00 0.00 0.00 49 1016.0
20260905163252 98 293 2.0 8.0 0.00 0.00 0.00 47 1016.0
20260905162728 98 263 1.0 4.0 0.00 0.00 0.00 47 1016.0
20260905162200 97 122 2.0 6.0 0.00 0.00 0.00 50 1016.0
20260905161657 97 257 2.0 6.0 0.00 0.00 0.00 48 1016.0
20260905161150 97 255 1.0 5.0 0.00 0.00 0.00 48 1016.0
20260905160625 96 114 1.0 6.0 0.00 0.00 0.00 51 1015.9
20260905160123 98 13 1.0 5.0 0.00 0.00 0.00 48 1016.0
20260905160049 98 263 1.0 5.0 0.00 0.00 0.00 48 1016.0
20260905155103 97 257 1.0 5.0 0.00 0.00 0.00 51 1016.0
20260905154602 96 144 1.0 4.0 0.00 0.00 0.00 54 1016.0
20260905154101 95 247 1.0 4.0 0.00 0.00 0.00 51 1016.0
20260905153539 95 82 1.0 3.0 0.00 0.00 0.00 52 1016.1
20260905153520 94 205 1.0 5.0 0.00 0.00 0.00 55 1016.1
20260905152522 94 261 3.0 7.0 0.00 0.00 0.00 53 1016.0
20260905152020 95 250 2.0 7.0 0.00 0.00 0.00 51 1016.0
20260905151519 96 140 0.0 1.0 0.00 0.00 0.00 53 1016.0
20260905151505 96 145 0.0 3.0 0.00 0.00 0.00 52 1015.9
20260905150952 95 259 1.0 4.0 0.00 0.00 0.00 54 1016.0
20260905145925 95 256 1.0 6.0 0.00 0.00 0.00 53 1015.9
20260905145903 95 212 1.0 5.0 0.00 0.00 0.00 54 1015.8
20260905144857 94 243 1.0 5.0 0.00 0.00 0.00 56 1015.8
20260905144353 94 208 2.0 7.0 0.00 0.00 0.00 56 1015.7
20260905144342 94 199 1.0 7.0 0.00 0.00 0.00 56 1015.8
20260905143334 94 210 1.0 3.0 0.00 0.00 0.00 55 1015.8
20260905142822 94 255 0.0 3.0 0.00 0.00 0.00 55 1015.8
20260905142322 94 157 0.0 1.0 0.00 0.00 0.00 58 1015.7
20260905141822 94 133 0.0 1.0 0.00 0.00 0.00 56 1015.7
20260905141320 94 138 0.0 1.0 0.00 0.00 0.00 56 1015.8
20260905141241 93 163 0.0 0.0 0.00 0.00 0.00 58 1015.8
20260905140246 92 166 0.0 0.0 0.00 0.00 0.00 59 1015.9
20260905135750 92 189 0.0 1.0 0.00 0.00 0.00 60 1015.9
20260905135231 91 189 0.0 1.0 0.00 0.00 0.00 62 1015.9
20260905135154 90 134 0.0 1.0 0.00 0.00 0.00 62 1015.8
20260905134149 90 134 0.0 1.0 0.00 0.00 0.00 63 1015.7
20260905134134 89 18 0.0 0.0 0.00 0.00 0.00 64 1015.8
20260905133132 89 18 0.0 0.0 0.00 0.00 0.00 66 1015.9
20260905132635 88 18 0.0 1.0 0.00 0.00 0.00 67 1015.8
20260905132119 87 17 0.0 1.0 0.00 0.00 0.00 69 1015.7
20260905131618 86 17 0.0 1.0 0.00 0.00 0.00 71 1015.6
20260905131119 85 17 0.0 0.0 0.00 0.00 0.00 73 1015.6
20260905130603 84 17 0.0 0.0 0.00 0.00 0.00 75 1015.6
20260905130027 81 17 0.0 1.0 0.00 0.00 0.00 78 1015.6
20260905125044 80 17 0.0 1.0 0.00 0.00 0.00 79 1015.6
20260905124524 80 17 0.0 0.0 0.00 0.00 0.00 82 1015.6
20260905123958 78 17 0.0 0.0 0.00 0.00 0.00 84 1015.6
20260905123455 77 17 0.0 0.0 0.00 0.00 0.00 86 1015.5
20260905122941 76 17 0.0 0.0 0.00 0.00 0.00 88 1015.5
20260905122442 74 17 0.0 0.0 0.00 0.00 0.00 89 1015.4
20260905121915 73 17 0.0 0.0 0.00 0.00 0.00 89 1015.4
20260905121413 73 17 0.0 0.0 0.00 0.00 0.00 88 1015.4
20260905120911 72 17 0.0 0.0 0.00 0.00 0.00 88 1015.4
20260905120408 72 17 0.0 0.0 0.00 0.00 0.00 88 1015.1
20260905115902 72 17 0.0 0.0 0.00 0.00 0.00 88 1015.2
20260905115843 72 17 0.0 0.0 0.00 0.00 0.00 88 1015.1
20260905114901 72 17 0.0 0.0 0.00 0.00 0.00 88 1015.0
20260905114842 72 17 0.0 0.0 0.00 0.00 0.00 87 1015.0
20260905113856 73 17 0.0 0.0 0.00 0.00 0.00 87 1015.0
20260905113846 73 17 0.0 0.0 0.00 0.00 0.00 87 1015.0
20260905112832 73 17 0.0 0.0 0.00 0.00 0.00 87 1015.0
20260905112307 73 17 0.0 0.0 0.00 0.00 0.00 87 1015.0
20260905112239 73 17 0.0 0.0 0.00 0.00 0.00 87 1015.0
20260905111243 73 17 0.0 0.0 0.00 0.00 0.00 86 1015.0
20260905110742 73 17 0.0 0.0 0.00 0.00 0.00 87 1015.0
20260905110240 73 17 0.0 0.0 0.00 0.00 0.00 87 1015.0
20260905105716 73 17 0.0 0.0 0.00 0.00 0.00 87 1014.9
20260905105157 73 17 0.0 0.0 0.00 0.00 0.00 87 1014.8
20260905105130 73 17 0.0 0.0 0.00 0.00 0.00 86 1014.8
20260905104621 73 17 0.0 0.0 0.00 0.00 0.00 86 1014.7
20260905103638 73 17 0.0 0.0 0.00 0.00 0.00 85 1014.8
20260905103141 73 17 0.0 0.0 0.00 0.00 0.00 85 1014.7
20260905102616 73 17 0.0 0.0 0.00 0.00 0.00 84 1014.7
20260905102056 74 17 0.0 0.0 0.00 0.00 0.00 84 1014.6
20260905102042 74 17 0.0 0.0 0.00 0.00 0.00 85 1014.6
20260905101024 74 17 0.0 0.0 0.00 0.00 0.00 85 1014.6
20260905100524 74 17 0.0 0.0 0.00 0.00 0.00 85 1014.6
20260905100025 74 17 0.0 0.0 0.00 0.00 0.00 85 1014.6
20260905095503 74 17 0.0 0.0 0.00 0.00 0.00 84 1014.6
20260905095426 74 17 0.0 0.0 0.00 0.00 0.00 84 1014.5
20260905094438 74 17 0.0 0.0 0.00 0.00 0.00 84 1014.3
20260905093941 74 17 0.0 0.0 0.00 0.00 0.00 84 1014.6
20260905093907 74 17 0.0 0.0 0.00 0.00 0.00 84 1014.6
20260905092853 74 17 0.0 0.0 0.00 0.00 0.00 83 1014.5
20260905092355 74 17 0.0 0.0 0.00 0.00 0.00 83 1014.5
20260905091831 74 17 0.0 0.0 0.00 0.00 0.00 82 1014.6
20260905091316 74 17 0.0 0.0 0.00 0.00 0.00 82 1014.6
20260905090751 75 17 0.0 0.0 0.00 0.00 0.00 81 1014.6
20260905090228 75 17 0.0 0.0 0.00 0.00 0.00 81 1014.5
20260905085705 75 17 0.0 0.0 0.00 0.00 0.00 81 1014.5
20260905085202 75 17 0.0 0.0 0.00 0.00 0.00 81 1014.5
20260905085157 75 17 0.0 0.0 0.00 0.00 0.00 80 1014.5
20260905084159 75 17 0.0 0.0 0.00 0.00 0.00 81 1014.3
20260905083659 76 17 0.0 0.0 0.00 0.00 0.00 80 1014.3
20260905083619 76 17 0.0 0.0 0.00 0.00 0.00 80 1014.3
20260905082636 76 17 0.0 0.0 0.00 0.00 0.00 80 1014.3
20260905082133 76 17 0.0 0.0 0.00 0.00 0.00 79 1014.3
20260905081635 76 17 0.0 0.0 0.00 0.00 0.00 79 1014.3
20260905081113 76 17 0.0 0.0 0.00 0.00 0.00 79 1014.3
20260905080546 76 17 0.0 0.0 0.00 0.00 0.00 78 1014.3
20260905080025 76 17 0.0 0.0 0.00 0.00 0.00 78 1014.3
20260905075503 77 17 0.0 0.0 0.00 0.00 0.00 78 1014.3
20260905074935 77 17 0.0 0.0 0.00 0.00 0.00 77 1014.2
20260905074410 77 17 0.0 0.0 0.00 0.00 0.00 77 1014.3
20260905073912 77 17 0.0 0.0 0.00 0.00 0.00 77 1014.5
20260905073345 77 17 0.0 0.0 0.00 0.00 0.00 76 1014.5
20260905073332 78 17 0.0 0.0 0.00 0.00 0.00 76 1014.5
20260905072823 78 17 0.0 0.0 0.00 0.00 0.00 76 1014.6
20260905071815 78 17 0.0 0.0 0.00 0.00 0.00 75 1014.6
20260905071243 78 17 0.0 0.0 0.00 0.00 0.00 75 1014.6
20260905070742 78 17 0.0 0.0 0.00 0.00 0.00 75 1014.6
20260905070238 78 17 0.0 0.0 0.00 0.00 0.00 75 1014.6
20260905065736 79 17 0.0 0.0 0.00 0.00 0.00 75 1014.7
20260905065716 79 17 0.0 0.0 0.00 0.00 0.00 74 1014.8
20260905065218 79 17 0.0 0.0 0.00 0.00 0.00 74 1014.8
20260905064228 79 17 0.0 0.0 0.00 0.00 0.00 74 1014.8
20260905063726 80 17 0.0 0.0 0.00 0.00 0.00 74 1014.7
20260905063202 80 17 0.0 0.0 0.00 0.00 0.00 74 1014.7
20260905062645 80 17 0.0 0.0 0.00 0.00 0.00 73 1014.7
20260905062144 80 17 0.0 0.0 0.00 0.00 0.00 72 1014.8
20260905061645 80 17 0.0 0.0 0.00 0.00 0.00 72 1014.8
20260905061143 81 17 0.0 0.0 0.00 0.00 0.00 71 1014.9
20260905060643 81 17 0.0 0.0 0.00 0.00 0.00 71 1014.8
20260905060113 81 17 0.0 0.0 0.00 0.00 0.00 71 1014.9
20260905055608 81 17 0.0 0.0 0.00 0.00 0.00 71 1014.8
20260905055105 81 17 0.0 1.0 0.00 0.00 0.00 71 1014.9
20260905054554 81 17 0.0 1.0 0.00 0.00 0.00 71 1014.7
20260905054541 80 17 0.0 1.0 0.00 0.00 0.00 71 1014.7
20260905053552 80 16 0.0 1.0 0.00 0.00 0.00 72 1014.7
20260905053055 80 16 0.0 0.0 0.00 0.00 0.00 71 1014.7
20260905052536 80 16 0.0 0.0 0.00 0.00 0.00 71 1014.7
20260905052034 80 16 0.0 0.0 0.00 0.00 0.00 71 1014.8
20260905051534 80 16 0.0 0.0 0.00 0.00 0.00 71 1014.7
20260905051033 80 16 0.0 0.0 0.00 0.00 0.00 70 1014.7
20260905051020 80 16 0.0 0.0 0.00 0.00 0.00 70 1014.7
20260905050025 80 16 0.0 0.0 0.00 0.00 0.00 70 1014.7
20260905045523 80 16 0.0 0.0 0.00 0.00 0.00 70 1014.8
20260905044955 80 16 0.0 0.0 0.00 0.00 0.00 70 1014.7
20260905044427 80 16 0.0 0.0 0.00 0.00 0.00 70 1014.7
20260905043921 80 16 0.0 0.0 0.00 0.00 0.00 69 1014.7
20260905043418 80 16 0.0 0.0 0.00 0.00 0.00 69 1014.8
20260905042915 80 16 0.0 0.0 0.00 0.00 0.00 69 1014.8
20260905042414 80 16 0.0 0.0 0.00 0.00 0.00 69 1014.8
20260905041846 81 16 0.0 0.0 0.00 0.00 0.00 68 1014.7
20260905041343 81 16 0.0 0.0 0.00 0.00 0.00 68 1014.7
20260905041254 81 16 0.0 0.0 0.00 0.00 0.00 68 1014.7
20260905040314 81 16 0.0 0.0 0.00 0.00 0.00 68 1014.7